星链-35905(STARLINK-35905)

导读

STARLINK-35905是美国SpaceX公司星链(Starlink)星座的一员,于2025年12月11日从美国发射升空,属于星链低轨宽带通信卫星星座组网卫星。 星链卫星采用平板设计,搭载氪工质霍尔推进器,配备Ku/Ka波段通信载荷与光学星间链路,具备自主避撞能力,寿命末期会主动离轨再入大气层焚毁。该卫星旨在为全球提供覆盖广泛的高速宽带互联网服务,助力星链星座完成全球组网部署。

基本信息
目录编号:
67048
目录名称:
STARLINK-35905
国际标识:
2025-294U
轨道中心:
EARTH
卫星名称:
星链-35905
卫星全名:
星链-35905(STARLINK-35905)
卫星状态:
在轨 (已飞行267 天)
发射日期:
2025-12-11 UTC
国别 :
美国 (US)
星等 :
--
轨道信息
数据来源 国际轨道数据 AOE轨道数据
星历时间 2026-09-03T09:15:05+0800
1天前
查看轨道信息
2026-08-29T23:00:00+0800
6天前
查看轨道信息
半长轴 6861.129km 6861.246km
偏心率 0.0001922 0.0000875
轨道倾角 43.001° 43.003°
近地点辐角 270.069° 262.087°
升交点赤经 116.500° 141.507°
平近点角 89.994° 203.174°
近地点 481.673km 482.508km
远地点 484.311km 483.71km
周期 94.266分钟 94.268分钟
每日圈数 15.275991 15.275602
详细信息
固有亮度:
5
最大亮度:
2.5
卫星平台:
Starlink V1.0
覆盖范围:
全球
运营商:
太空探索技术公司
运营商所在国:
美国
制造商(研发单位):
太空探索技术公司
制造商所在国:
美国
使用方式:
暂无
卫星简介
Starlink 计划是 SpaceX 推出的全球卫星互联网项目,通过发射低轨道卫星,为全球尤其是偏远地区提供高速、低延迟的互联网服务。自 2019 年起,Starlink 已部署数千颗卫星,旨在缩小全球数字鸿沟,推动互联网普及。该项目还为军事、航空等行业提供通信支持,带来广泛经济效益。
2D轨道图
3D轨道图
轨道高度分析图
轨道倾角分析图
轨道综合分析图
查看轨道综合分析图
交会数据列表
事件ID 空间交会对象 最接近时刻(TCA) 交会距离 交会风险概率(CRP) 交会风险指数(CRI) 操作
CDM_260905-164206-307806-704821
2026-09-05T
16:42:39+0000
0.439 km
远距离
2.466836E-4 高风险 0.83
CDM_260906-065005-932406-704821
2026-09-06T
06:50:13+0000
0.443 km
远距离
2.138306E-4 高风险 0.82
CDM_260906-192005-859406-704821
2026-09-06T
19:20:20+0000
0.742 km
远距离
5.303032E-5 中风险 0.69
CDM_260906-201005-932406-704821
2026-09-06T
20:10:31+0000
1.320 km
极远距离
7.876195E-6 低风险 0.53
CDM_260905-150806-307806-704821
2026-09-05T
15:08:27+0000
1.535 km
极远距离
5.557265E-6 低风险 0.5
CDM_260906-205405-859406-704821
2026-09-06T
20:54:29+0000
2.221 km
极远距离
1.693165E-6 低风险 0.4
CDM_260906-051605-932406-704821
2026-09-06T
05:16:03+0000
2.490 km
极远距离
1.405916E-6 低风险 0.38
CDM_260906-082405-932406-704821
2026-09-06T
08:24:22+0000
2.750 km
极远距离
1.200833E-6 低风险 0.37